Погода в Утесе

Россия / Ивановская область     57°25′38″N   41°36′19″E
темп.,
°C
ветер,
м/с
пор.,
м/с
влажн.,
%
обл.,
%
осадки,
мм/ч
давл.,
гПа
погр.,
м
15 апреля, чт
чт1500:00+11ю3361100 0.0 101838
03:00+9з1165100 0.0 101810
06:00+9ссв2273100 0.0 101823
09:00+11св4576100 0.0 1019294
12:00+14ссв5569100 0.0 1020679
15:00+12св6873100 0.0 1021728
18:00+9св71079100 0.0 1022685
21:00+7всв71483100 0.0 1024565
16 апреля, пт
пт1600:00+5всв71577100 0.0 1025542
03:00+4всв61483100 0.0 1026525
06:00+3всв6138499 0.0 1026488
09:00+6всв6106491 0.0 1027570
12:00+10всв785375 0.0 1027884
15:00+12всв684417 0.0 10271083
18:00+10всв594643 0.0 1027847
21:00+6всв5126329 0.0 1029391
17 апреля, сб
сб1700:00+4всв512725 0.0 1029346
03:00+3всв4127719 0.0 1030276
06:00+2всв5127711 0.0 1030311
09:00+7всв610535 0.0 1030626
12:00+11всв67405 0.0 10301171
15:00+12всв67375 0.0 10281367
18:00+11всв48470 0.0 1028421
21:00+6св410670 0.0 1028187
18 апреля, вс
вс1800:00+4всв310760 0.0 1028182
03:00+3св39811 0.0 1029186
06:00+2св310825 0.0 1029224
09:00+8всв585623 0.0 1028647
12:00+10всв5744100 0.0 10281289
15:00+11св5747100 0.0 10281410
18:00+10св5856100 0.0 1028573
21:00+6всв61071100 0.0 1030644
19 апреля, пн
пн1900:00+3всв4117399 0.0 1031454
03:00+2всв4106850 0.0 1032331
06:000всв511715 0.0 1033381
09:00+4в69450 0.0 1033960
12:00+7в67350 0.0 10331609
15:00+8в57320 0.0 10331766
18:00+7в46413 0.0 10331056
21:00+3в38613 0.0 1034145